Volver al catálogo

COSMOS 1759

ActivoNavegaciónPO
NORAD 16798·PAYLOAD·🇷🇺 Russia

Lanzado Jun 18, 1986 desde Plesetsk Cosmodrome

Loading…

Próximos Pases (próximas 24 horas)

TLE

ActualizadoSource: Space-Track

Época: Sep 14, 2026, 22:14 UTC

1 16798U 86047A   26257.92677840  .00000046  00000-0  32156-4 0  9992
2 16798  82.9190 121.7538 0024787   6.8425   9.4213 13.75207463 19032

Sigue COSMOS 1759 en tiempo real con AllMySat

Download on the App Store